Location: Geyikbay?r?
(36.8756°N, 30.4583°E)
Time: 12:13:16
(UTC+00:00)

Meteor 2-3 Rocket - Pass Details

Date: 05 August 2024
Orbit: 844 x 882 km, 81.2° (Epoch: 11 September)

Event Time Altitude Azimuth Distance (km) Brightness Sun altitude
Exits shadow 19:22:33 29° 205° (SSW) 1,526 4.8 -24.3°
Maximum altitude 19:25:30 67° 280° (W) 917 3.9 -24.7°
Drops below altitude 10° 19:31:05 10° 3° (N) 2,474 6.7 -25.4°
Sets 19:33:32 0° 6° (N) 3,411 7.5 -25.8°
